Weather History for KUAO - March, 2014

Change the Weather History Date:

Sunday, March 9, 2014

  Actual Average Record
Temperature  
Mean Temperature 56 °F -  
Max Temperature 60 °F - 69 °F (2005)
Min Temperature 50 °F - 30 °F (2013)
Degree Days  
Heating Degree Days 10    
Month to date heating degree days 131  
Since 1 July heating degree days 3578  
Cooling Degree Days 0    
Month to date cooling degree days 0  
Year to date cooling degree days 0  
Growing Degree Days 6 (Base 50)    
Moisture  
Dew Point 52 °F    
Average Humidity 86    
Maximum Humidity 100    
Minimum Humidity 72    
Precipitation  
Precipitation 0.27 in - 1.50 in (1966)
Month to date precipitation 3.77  
Year to date precipitation 12.09  
Sea Level Pressure  
Sea Level Pressure 30.00 in    
Wind  
Wind Speed 6 mph (SSW)    
Max Wind Speed 14 mph    
Max Gust Speed 17 mph    
Visibility 9 miles    
Events Rain    
T = Trace of Precipitation, MM = Missing Value Source: NWS Daily Summary

Daily Weather History Graph

Daily Weather History Graph

Search for Another Location

Airport or City:

Trip Planner

Search our weather history database for the weather conditions in past years. The results will help you decide how hot, cold, wet, or windy it might be!

Date:

Astronomy

Mar. 09, 2014 Rise Set
Actual Time 7:34 AM PDT 7:09 PM PDT
Civil Twilight 7:05 AM PDT 7:38 PM PDT
Nautical Twilight 6:31 AM PDT 8:12 PM PDT
Astronomical Twilight 5:56 AM PDT 8:47 PM PDT
Moon 12:54 PM PDT (3/9) 3:16 AM PDT (3/9)
Length of Visible Light 12h 33m
Length of Day
11h 34m
First Quarter, 62% of the Moon is Illuminated
Mar 9
First Quarter
Mar 16
Full
Mar 23
Last Quarter
Mar 30
New
Apr 7
First Quarter

Hourly Weather History & Observations

Time (PDT) Temp. Dew Point Humidity Pressure Visibility Wind Dir Wind Speed Gust Speed Precip Events Conditions
12:53 AM 55.0 °F 54.0 °F 96% 29.97 in 10.0 mi SSW 11.5 mph - 0.03 in   Overcast
1:53 AM 55.0 °F 54.0 °F 96% 29.97 in 10.0 mi SSW 6.9 mph - N/A   Overcast
3:53 AM 55.0 °F 54.0 °F 96% 29.96 in 6.0 mi SSW 8.1 mph - 0.02 in Rain Rain
4:13 AM 55.0 °F 54.0 °F 96% 29.94 in 4.0 mi South 9.2 mph - 0.05 in Rain Rain
4:24 AM 55.0 °F 54.0 °F 96% 29.94 in 8.0 mi South 8.1 mph - 0.05 in Rain Light Rain
4:53 AM 55.0 °F 54.0 °F 96% 29.94 in 8.0 mi South 8.1 mph - 0.08 in Rain Light Rain
5:03 AM 55.0 °F 54.0 °F 96% 29.94 in 10.0 mi South 8.1 mph - 0.00 in Rain Light Rain
5:29 AM 54.0 °F 54.0 °F 100% 29.94 in 10.0 mi South 8.1 mph - 0.01 in Rain Light Rain
5:53 AM 54.0 °F 54.0 °F 100% 29.95 in 10.0 mi South 6.9 mph - 0.02 in Rain Light Rain
6:21 AM 54.0 °F 54.0 °F 100% 29.95 in 10.0 mi SSW 5.8 mph - 0.03 in Rain Light Rain
6:53 AM 54.0 °F 54.0 °F 100% 29.96 in 10.0 mi SSW 5.8 mph - 0.04 in Rain Light Rain
7:41 AM 54.0 °F 54.0 °F 100% 29.97 in 2.5 mi West 6.9 mph - 0.06 in Rain Light Rain
7:53 AM 53.1 °F 52.0 °F 96% 29.97 in 5.0 mi Variable 6.9 mph - 0.07 in Rain Light Rain
8:16 AM 53.1 °F 52.0 °F 96% 29.98 in 4.0 mi SW 5.8 mph - 0.02 in Rain Light Rain
8:24 AM 53.1 °F 52.0 °F 96% 29.99 in 9.0 mi SW 5.8 mph - 0.02 in Rain Light Rain
8:53 AM 53.1 °F 52.0 °F 96% 30.00 in 10.0 mi SSW 3.5 mph - 0.02 in   Overcast
9:53 AM 54.0 °F 53.1 °F 97% 30.02 in 10.0 mi South 3.5 mph - N/A   Overcast
10:29 AM 55.0 °F 53.1 °F 93% 30.05 in 10.0 mi WSW 3.5 mph - N/A   Overcast
10:53 AM 55.0 °F 53.1 °F 93% 30.06 in 10.0 mi SW 4.6 mph - N/A   Overcast
11:02 AM 55.0 °F 52.0 °F 89% 30.06 in 10.0 mi SW 5.8 mph - N/A   Overcast
11:38 AM 55.0 °F 54.0 °F 96% 30.06 in 10.0 mi SW 4.6 mph - N/A   Overcast
11:53 AM 55.9 °F 54.0 °F 93% 30.06 in 10.0 mi SW 4.6 mph - N/A   Mostly Cloudy
12:18 PM 57.0 °F 53.1 °F 87% 30.06 in 10.0 mi Variable 5.8 mph - N/A   Mostly Cloudy
12:53 PM 57.9 °F 53.1 °F 84% 30.05 in 10.0 mi SSW 9.2 mph - N/A   Partly Cloudy
1:53 PM 57.9 °F 52.0 °F 81% 30.03 in 10.0 mi South 9.2 mph - N/A   Scattered Clouds
2:29 PM 59.0 °F 52.0 °F 78% 30.02 in 10.0 mi South 10.4 mph - N/A   Mostly Cloudy
2:37 PM 59.0 °F 52.0 °F 78% 30.02 in 10.0 mi SSW 6.9 mph - N/A   Scattered Clouds
2:50 PM 59.0 °F 51.8 °F 77% 30.01 in 10.0 mi South 8.1 mph - N/A   Mostly Cloudy
2:53 PM 60.1 °F 52.0 °F 75% 30.01 in 10.0 mi South 8.1 mph - N/A   Mostly Cloudy
3:21 PM 60.1 °F 52.0 °F 75% 30.02 in 10.0 mi SSW 5.8 mph - N/A   Mostly Cloudy
3:49 PM 60.8 °F 51.8 °F 72% 30.01 in 10.0 mi WSW 6.9 mph - N/A   Overcast
3:53 PM 60.1 °F 52.0 °F 75% 30.01 in 10.0 mi SSW 5.8 mph - N/A   Mostly Cloudy
4:53 PM 60.1 °F 52.0 °F 75% 29.99 in 10.0 mi SW 4.6 mph - N/A   Mostly Cloudy
5:53 PM 59.0 °F 52.0 °F 78% 29.98 in 10.0 mi WSW 4.6 mph - N/A   Partly Cloudy
6:53 PM 57.0 °F 50.0 °F 77% 29.98 in 10.0 mi West 4.6 mph - N/A   Scattered Clouds
7:53 PM 55.0 °F 46.9 °F 74% 29.98 in 10.0 mi WSW 5.8 mph - N/A   Scattered Clouds
8:53 PM 54.0 °F 46.0 °F 75% 29.99 in 10.0 mi WSW 4.6 mph - N/A   Overcast
9:53 PM 53.1 °F 46.9 °F 80% 30.00 in 10.0 mi SSW 4.6 mph - N/A   Overcast
10:53 PM 52.0 °F 46.9 °F 83% 30.01 in 10.0 mi SW 4.6 mph - N/A   Mostly Cloudy
11:53 PM 51.1 °F 46.0 °F 83% 30.01 in 10.0 mi Variable 3.5 mph - N/A   Mostly Cloudy
12:53 AM 50.0 °F 46.9 °F 89% 30.02 in 10.0 mi SW 5.8 mph - 0.00 in   Scattered Clouds